Aeroporto :
LOGIN :

Iscrizione | Disclaimer

   EN    FR    IT 

 










Sommario :    VFR   VFR Marginale   IFR   IFR Intensivo   IFR Molto Intensivo
Visibilità : 
Base nubi : 
>= 8 km
>= 3000ft
5 / 8 km
1000 / 3000 ft
1500m / 5 km
500 / 1000 ft
800 / 1500m
200 / 500 ft
< 800m
< 200 ft
Simboli :   Temporali  Nebbia  Neve Forte  Precipitazioni Forti  Vento > 20 kt
SIGMETs :   Varie  Temporali  Ghiacco  Turbolenza  Onda orograficha  Ceneri Vulcaniche






- Altitudine del aeroporto : 13 ft
- Codice IATA : OST


EBOS - Oostend bruges Int.

ULTIMO METAR :
  • 200120Z 07010KT CAVOK 18/10 Q1016 NOSIG

METARs OBSOLETI :
  • 200050Z 06010KT CAVOK 18/10 Q1016 NOSIG
  • 200020Z 06010KT CAVOK 18/11 Q1016 NOSIG
  • 192350Z 06008KT CAVOK 18/11 Q1016 NOSIG
  • 192320Z 06008KT CAVOK 18/11 Q1016 NOSIG
  • 192250Z 06008KT CAVOK 18/12 Q1016 NOSIG

TAF TAF EBOS
Valido dal 20 a 00 ore il 21 a 06 ore UTC


192310Z 2000/2106 06009KT CAVOK



MetMap, La meteo Aeronautica in un colpo d'occhio ! - Copyright ORBIFLY Dicembre 2007 - Disclaimer

ORBIFLY MET'MAP TEAM :

Programmazione e sviluppo : Alexandra Zaïnal
Concezione : Baudouin d'Aumeries
Aiuto per la programmazione : Marc-Olivier Méhu
Supporto tecnico e logistico : Manuel Goepfert
Aiuto per la traduzione : Arnaldo La Scala

Contatto : metmap@orbifly.com




FONTI E CREDITI :

   NOAA